Regional Weather Roundup
Issued by NWS Cleveland, OH

Home | Current Version | Previous Version | Graphics & Text | Print | Product List | Glossary On
Versions: 1 2 3 4 5 6 7 8 9 10 11 12 13 14 15 16 17 18 19 20 21 22 23 24 25 26 27 28 29 30 31 32 33 34 35 36 37 38 39 40 41 42 43 44 45 46 47 48 49 50
000
ASUS41 KCLE 211910
RWRCLE
OHIO REGIONAL WEATHER ROUNDUP
NATIONAL WEATHER SERVICE WILMINGTON, OH
300 PM EDT MON AUG 21 2017

NOTE: "FAIR" INDICATES FEW OR NO CLOUDS BELOW 12,000 FEET WITH NO
SIGNIFICANT WEATHER AND/OR OBSTRUCTIONS TO VISIBILITY.

OHZ001>008-015>018-024>027-034-035-043-044-212000-
   NORTHWEST OHIO

CITY           SKY/WX    TMP DP  RH WIND       PRES   REMARKS
DEFIANCE       FAIR      83  72  69 SW3       30.06F
FINDLAY        RAIN      77  70  79 SW14G20   30.08S
TOLEDO EXPRESS FAIR      83  72  69 CALM      30.06F
TOLEDO EXEC    FAIR      85  70  60 SW5       30.07F
LIMA           FAIR      83  73  72 S9        30.09F
$$

OHZ009>014-019>023-028>033-038-089-212000-
   NORTHEAST OHIO

CITY           SKY/WX    TMP DP  RH WIND       PRES   REMARKS
CLE-HOPKINS    FAIR      87  68  52 N9        30.11F HX  90
CLE-LAKEFRONT  FAIR      79  70  74 NE6       30.08F
CUY CO. ARPT   MOSUNNY   84  68  58 VRB6      30.11F
LORAIN-ELYRIA  FAIR      82  67  60 W3        30.10F
ASHTABULA      FAIR      81  71  71 CALM      30.12F
AKRON-CANTON   PTSUNNY   85  68  56 SW8       30.13F
WOOSTER        FAIR      82  71  69 SW3       30.13F
MANSFIELD      PTSUNNY   83  70  64 SW8       30.13F
YOUNGSTOWN     PTSUNNY   83  67  58 CALM      30.12F
$$

OHZ042-051>053-060>062-070>072-077>081-212000-
  SOUTHWEST OHIO

CITY           SKY/WX    TMP DP  RH WIND       PRES   REMARKS
CINC-COVINGTON FAIR      84  72  67 S5        30.14F
CINC-LUNKEN    FAIR      83  73  72 S5        30.12F
HAMILTON       FAIR      85  71  63 SW5       30.13F HX  90
DAYTON         CLOUDY    84  68  58 SW8       30.13F
WRIGHT-PAT AFB FAIR      85  66  51 SW6       30.11F
DAYTON GENERAL FAIR      85  61  44 SW7       30.12F
WILMINGTON     FAIR      82  73  74 S6        30.14F
$$

OHZ036-037-039>041-045>050-054>059-063>069-073>076-082>088-212000-
  CENTRAL AND SOUTHEAST OHIO

CITY           SKY/WX    TMP DP  RH WIND       PRES   REMARKS
COLUMBUS       PTSUNNY   86  69  56 SW12      30.12F HX  90
OSU AIRPORT    FAIR      84  69  60 SW9       30.12F
BOLTON FIELD   SUNNY     81  72  74 SW5       30.14F
RICKENBACK AFB FAIR      83  71  67 SW3       30.13S
NEWARK         FAIR      83  72  69 SW6       30.12F
MARION         FAIR      83  72  69 S9        30.11F
LANCASTER      FAIR      83  74  74 CALM      30.14F
ZANESVILLE     FAIR      84  72  67 SW3       30.13F
NEW PHILLY     FAIR      82  73  74 S3        30.13F
$$



USA.gov is the U.S. government's official web portal to all federal, state and local government web resources and services.